Regional Weather Roundup
Issued by NWS

Home | Current Version | Previous Version | Graphics & Text | Print | Product List | Glossary On
Versions: 1 2 3 4 5 6 7 8 9 10 11 12 13 14 15 16 17 18 19 20 21 22 23 24 25 26 27 28 29 30 31 32 33 34 35 36 37 38 39 40 41 42 43 44 45 46 47 48 49 50
643
ASUS44 KMEG 261110
RWRTN
TENNESSEE HOURLY STATE WEATHER ROUNDUP
NATIONAL WEATHER SERVICE MEMPHIS TN
600 AM CDT SUN MAR 26 2017

TNZ002-004-019-021-049-052-054-088>092-261200-
WEST TENNESSEE

CITY           SKY/WX    TMP DP  RH WIND       PRES   REMARKS
MEMPHIS INTL   CLOUDY    59  58  96 S7        29.93R
NWS MEMPHIS      N/A     59 N/A N/A MISG        N/A
JACKSON        CLOUDY    60  58  92 S6        29.93R
DYERSBURG      CLOUDY    56  55  97 CALM      29.93R
SOMERVILLE     CLOUDY    59  57  94 S5        29.93R
BOLIVAR        CLOUDY    59  57  94 S5        29.94R
PARIS          CLOUDY    55  55 100 S7        29.93R
HUNTINGDON     CLOUDY    59  57  94 S7        29.93R
SAVANNAH       CLOUDY    59  57  94 S7G13     29.95R
$$

TNZ008-025-027-028-033-062-065-066-261200-
NORTH MIDDLE TENNESSEE

CITY           SKY/WX    TMP DP  RH WIND       PRES   REMARKS
NASHVILLE      CLOUDY    58  56  93 S10       29.97S
PORTLAND       CLOUDY    57  55  94 S13       29.97R
CLARKSVILLE    CLOUDY    58  54  86 S7        29.94R
SMYRNA         CLOUDY    58  56  93 S7        29.99R
COOKEVILLE     CLOUDY    59  55  88 S7        29.99S
GALLATIN       CLOUDY    57  57 100 S7        30.00R
CROSSVILLE     CLOUDY    57  53  86 S12G23    30.03F
$$

TNZ061-075-076-078-094-096-097-261200-
SOUTH MIDDLE TENNESSEE

CITY           SKY/WX    TMP DP  RH WIND       PRES   REMARKS
FAYETTEVILLE   CLOUDY    59  57  94 S10       30.00S
TULLAHOMA      CLOUDY    57  55  94 S6        30.01S
WINCHESTER     CLOUDY    57  54  88 S10       30.01S
MCMINNVILLE    MOCLDY    59  55  88 S7        30.00S
COLUMBIA       CLOUDY   N/A N/A N/A S7        29.95S
SHELBYVILLE    CLOUDY   N/A N/A N/A MISG      30.00R
$$

TNZ017-018-042-046-047-261200-
NORTHEAST TENNESSEE

CITY           SKY/WX    TMP DP  RH WIND       PRES   REMARKS
TRI CITIES     CLOUDY    61  49  64 S5        30.09R
ELIZABETHTON   CLOUDY    61  50  67 SE6       30.10R
$$

TNZ012-013-036-069-073-074-261200-
CENTRAL EAST TENNESSEE

CITY           SKY/WX    TMP DP  RH WIND       PRES   REMARKS
KNOXVILLE      CLOUDY    59  56  89 CALM      30.05R
OAK RIDGE      CLOUDY    59  56  89 CALM      30.07R
DOWNTOWN KNOXV MOCLDY    59  57  94 CALM      30.07R
GATLINBURG     CLOUDY    55  55 100 CALM      30.06F
MORRISTOWN     CLOUDY    55  55 100 SW7       30.08R
JACKSBORO      MOCLDY    59  55  88 S10G17    30.08R
$$

TNZ083-085-099-261200-
SOUTHEAST TENNESSEE

CITY           SKY/WX    TMP DP  RH WIND       PRES   REMARKS
CHATTANOOGA    CLOUDY    60  58  92 SE3       30.05R
$$

SKY/WX REPORTED AS FAIR MEANS FEW OR NO CLOUDS BELOW
12 THOUSAND FEET.





USA.gov is the U.S. government's official web portal to all federal, state and local government web resources and services.